Find Starlink 11441

NORAD ID: 62413 Int'l Des: 2024-249 Owner: SPXS Country: US Constellation: starlink operational
又名: STARLINK-11441 [DTC] celestrak
LEOCIRCULAR

当前视图

正在加载3D地球...

About Starlink 11441

Starlink 11441 (NORAD 62413) is a starlink constellation satellite (v2 mini d2c) launched Dec 23, 2024 by SPXS of US. It operates in LEO, CIRCULAR orbit with a mass of 960.00 kg.

即将过境

Passes for default location (London). Set your location on the main map for personalized predictions.

高度历史

Loading altitude history...

两行轨道根数

1 62413U 24249E 26263.18957534 .00140133 00000-0 10739-2 0 9992
2 62413 43.0020 74.9870 0002599 269.7861 90.2709 15.70912791100073
Epoch: Sep 20, 2026 • Age: 15 hours

当前状态

高度 364.3 km
远地点 / 近地点 N/A
速度 7.69 km/s
星下点 -34.72°S, 9.97°E
发射日期 Dec 23, 2024
运行时间 1.7 years
类型 internet

技术详情

分类 Payload
质量 960.00 kg
干质量 910.00 kg
长度 0.30 m
跨度 29.00 m
形状 ? Box + pan
制造商 SPXS
平台类型 Starlink V2MD
阶段状态 In Orbit
所有者/国家 SPXS/US

Most Searched